Voltar ao catálogo

STARLINK-34584

AtivoComunicaçõesVLEO
NORAD 64697·PAYLOAD·🇺🇸 United States

Lançado Jun 28, 2025 de Vandenberg Space Force Base

Loading…

Próximas Passagens (próximas 24 horas)

TLE

AtualizadoSource: CelesTrak SupGP

Época: Sep 15, 2026, 03:32 UTC

1 64697C 25142B   26258.14770833 -.00030575  00000+0 -10636-2 0  2589
2 64697  70.0016 194.9490 0003199 273.2427 145.8476 15.29593892    12

Acompanhe STARLINK-34584 em tempo real com AllMySat

Download on the App Store